TimeCDT,TemperatureF,Dew PointF,Humidity,Sea Level PressureIn,VisibilityMPH,Wind Direction,Wind SpeedMPH,Gust SpeedMPH,PrecipitationIn,Events,Conditions,WindDirDegrees,DateUTC
12:53 AM,70.0,64.9,84,29.95,10.0,SE,4.6,-,N/A,,Clear,130,2013-06-20 05:53:00
1:53 AM,69.1,64.9,87,29.95,10.0,SE,4.6,-,N/A,,Clear,130,2013-06-20 06:53:00
2:53 AM,68.0,64.9,90,29.93,10.0,SE,4.6,-,N/A,,Clear,130,2013-06-20 07:53:00
3:53 AM,69.1,64.9,87,29.93,10.0,SE,4.6,-,N/A,,Clear,130,2013-06-20 08:53:00
4:53 AM,69.1,66.0,90,29.92,10.0,SSE,6.9,-,N/A,,Clear,150,2013-06-20 09:53:00
5:53 AM,70.0,66.0,87,29.93,10.0,SSE,8.1,-,N/A,,Scattered Clouds,160,2013-06-20 10:53:00
6:53 AM,71.1,66.9,87,29.94,10.0,SSE,6.9,-,N/A,,Partly Cloudy,150,2013-06-20 11:53:00
7:53 AM,73.9,66.9,79,29.95,10.0,SSE,11.5,-,N/A,,Scattered Clouds,160,2013-06-20 12:53:00
8:53 AM,78.1,68.0,71,29.92,10.0,SSE,17.3,-,N/A,,Partly Cloudy,160,2013-06-20 13:53:00
9:53 AM,80.1,68.0,67,29.92,10.0,SSE,20.7,25.3,N/A,,Mostly Cloudy,160,2013-06-20 14:53:00
10:53 AM,82.9,70.0,65,29.91,10.0,SSE,16.1,29.9,N/A,,Clear,160,2013-06-20 15:53:00
11:53 AM,84.9,70.0,61,29.90,10.0,South,20.7,29.9,N/A,,Clear,180,2013-06-20 16:53:00
12:53 PM,87.1,70.0,57,29.89,10.0,South,20.7,28.8,N/A,,Clear,170,2013-06-20 17:53:00
1:53 PM,88.0,71.1,57,29.88,10.0,South,17.3,27.6,N/A,,Partly Cloudy,180,2013-06-20 18:53:00
2:53 PM,89.1,72.0,57,29.85,10.0,SSE,24.2,33.4,N/A,,Scattered Clouds,150,2013-06-20 19:53:00
3:53 PM,90.0,71.1,54,29.83,10.0,SSE,20.7,29.9,N/A,,Scattered Clouds,160,2013-06-20 20:53:00
4:53 PM,90.0,71.1,54,29.82,10.0,South,19.6,34.5,N/A,,Clear,170,2013-06-20 21:53:00
5:53 PM,90.0,71.1,54,29.81,10.0,South,24.2,29.9,N/A,,Clear,170,2013-06-20 22:53:00
6:53 PM,89.1,71.1,55,29.81,10.0,South,18.4,27.6,N/A,,Clear,170,2013-06-20 23:53:00
7:53 PM,87.1,71.1,59,29.83,10.0,SSE,19.6,27.6,N/A,,Clear,160,2013-06-21 00:53:00
8:53 PM,84.0,72.0,67,29.84,10.0,SSE,13.8,-,N/A,,Clear,160,2013-06-21 01:53:00
9:53 PM,82.9,72.0,69,29.85,10.0,SSE,13.8,-,N/A,,Clear,160,2013-06-21 02:53:00
10:53 PM,81.0,72.0,74,29.88,10.0,SSE,10.4,-,N/A,,Clear,160,2013-06-21 03:53:00
11:53 PM,81.0,72.0,74,29.89,10.0,SSE,15.0,-,N/A,,Clear,160,2013-06-21 04:53:00